Location: Flotzheim
(48.8375°N, 10.8136°E)
Time: 17:05:34
(UTC+00:00)

Lacrosse 5 - Pass Details

Date: 23 January 2021
Orbit: 715 x 724 km, 57.0° (Epoch: 28 February)

Event Time Altitude Azimuth Distance (km) Brightness Sun altitude
Rises 18:20:55 0° 299° (WNW) 3,123 6.1 -22.9°
Reaches altitude 10° 18:23:42 10° 285° (WNW) 2,199 5.4 -23.3°
Maximum altitude 18:27:37 23° 234° (SW) 1,500 4.1 -24.0°
Drops below altitude 10° 18:31:31 10° 183° (S) 2,190 4.4 -24.6°
Enters shadow 18:33:55 - 171° (S) 2,971 5.0 -25.0°
